www.pogodaiklimat.ru

Погода и климат >> Архив погоды >> Катар >> Doha


АРХИВ ПОГОДЫ в Doha

Время (UTC), дата Ветер
(напр.,м/с)
 
Видим.   Явления Облачность Т
(С)
Тd
(С)
f
(%)
Тe
(С)
Тes
(С)
Комфортность P
(гПа)
Po
(гПа)
Тmin
(С)
Tmax
(С)
R
(мм)
R24
(мм)
S
(см)
21 4.12 СЗ 3 9000 м н/о +22.6 +17.2 72 +27 +27 душно 1016.4 1015.1
00 5.12 штиль 0 9000 м н/о +22.3 +16.6 70 +27 +27 душно 1015.8 1014.5
03 5.12 ЮЗ 3 7000 м н/о +22.4 +16.5 69 +27 +27 душно 1016.9 1015.6
06 5.12 Ю 1 11 км н/о +24.9 +16.7 60 +28 +28 жарко 1018.2 1016.9 +21.6
09 5.12 В 7 12 км н/о +26.4 +16.1 53 +30 +30 душно 1016.0 1014.7
12 5.12 В 6 9000 м н/о +25.1 +16.4 59 +29 +29 душно 1015.0 1013.7
15 5.12 В 4 11 км н/о +24.2 +17.4 66 +28 +28 душно 1015.0 1013.7
18 5.12 В 3 10 км н/о +23.2 +16.8 67 +28 +28 душно 1015.1 1013.8 +26.9
21 5.12 ЮВ 1 7000 м н/о +22.2 +17.3 74 +27 +27 душно 1014.0 1012.7
00 6.12 ЮВ 1 н/о н/о +22.1 +17.4 75 +27 +27 душно 1013.2 1011.9
03 6.12 ЮВ 2 4000 м н/о +21.4 +17.4 78 +25 +25 комфорт 1013.4 1012.1
06 6.12 ЮВ 8 12 км н/о +25.5 +17.1 60 +29 +29 душно 1015.0 1013.7 +20.8
09 6.12 ЮВ 6 13 км н/о +27.6 +15.3 47 +30 +30 жарко 1012.8 1011.5
12 6.12 В 11 17 км н/о +27.0 +15.0 48 +30 +30 душно 1011.2 1009.9
15 6.12 В 4 12 км н/о +24.5 +16.2 60 +28 +28 душно 1012.0 1010.7
18 6.12 ЮВ 3 11 км н/о +24.1 +17.7 67 +28 +28 душно 1012.7 1011.4 +28.0
21 6.12 В 6 9000 м н/о +23.3 +18.2 73 +29 +29 душно 1011.8 1010.5
00 7.12 Ю 4 8000 м н/о +23.6 +18.1 71 +28 +28 душно 1011.7 1010.4
03 7.12 ЮЗ 1 9000 м н/о +23.0 +16.4 66 +28 +28 душно 1013.2 1011.9
06 7.12 СЗ 11 12 км н/о +25.0 +7.6 33 +25 +25 комфорт 1015.4 1014.1 +22.6
09 7.12 СЗ 12 15 км н/о +27.4 +9.3 32 +28 +28 жарко 1014.0 1012.7
12 7.12 С 13 18 км н/о +25.7 +13.6 47 +28 +28 жарко 1013.0 1011.7
15 7.12 СЗ 9 20 км н/о +24.2 +11.4 45 +26 +26 жарко 1014.2 1012.9
18 7.12 СЗ 4 20 км н/о +22.9 +10.9 47 +25 +25 комфорт 1015.7 1014.4 +27.4
21 7.12 СЗ 4 20 км н/о +22.7 +10.2 45 +25 +25 комфорт 1015.8 1014.5
00 8.12 З 4 20 км н/о +21.8 +11.7 53 +24 +24 комфорт 1015.8 1014.5
03 8.12 СЗ 6 20 км н/о +21.5 +12.1 55 +24 +24 комфорт 1016.9 1015.6
06 8.12 СЗ 9 20 км н/о +24.0 +10.8 43 +25 +25 комфорт 1018.9 1017.6 +20.2
09 8.12 С 8 20 км н/о +25.4 +8.7 35 +26 +26 жарко 1017.5 1016.2
12 8.12 С 11 20 км н/о +25.2 +8.1 34 +26 +26 жарко 1016.4 1015.1
15 8.12 С 9 20 км н/о +23.8 +7.6 35 +24 +24 комфорт 1017.0 1015.7
18 8.12 С 3 20 км н/о +22.2 +11.5 51 +24 +24 комфорт 1018.3 1017.0 +25.9
21 8.12 СЗ 4 20 км н/о +21.3 +11.6 54 +23 +23 комфорт 1017.7 1016.4
00 9.12 З 3 20 км н/о +21.8 +8.6 43 +23 +23 комфорт 1017.1 1015.8
03 9.12 СЗ 3 20 км н/о +20.4 +9.4 49 +22 +22 комфорт 1017.9 1016.6
06 9.12 СЗ 7 10 км н/о +24.5 +8.4 36 +25 +25 комфорт 1019.5 1018.2 +20.1
09 9.12 СЗ 6 20 км н/о +25.5 +8.4 34 +26 +26 жарко 1018.2 1016.9
12 9.12 С 9 20 км н/о +25.8 +6.5 29 +25 +25 комфорт 1016.6 1015.3
15 9.12 С 7 20 км н/о +24.0 +9.8 41 +25 +25 комфорт 1017.2 1015.9
18 9.12 СЗ 4 12 км н/о +23.0 +10.4 45 +25 +25 комфорт 1018.1 1016.8 +26.4
21 9.12 СЗ 3 20 км н/о +21.1 +9.3 47 +22 +22 комфорт 1017.1 1015.8
00 10.12 СЗ 5 20 км н/о +21.5 +9.9 48 +23 +23 комфорт 1016.5 1015.2
03 10.12 СЗ 3 9000 м н/о +21.8 +11.4 52 +24 +24 комфорт 1016.6 1015.3
06 10.12 С 5 20 км н/о +24.8 +12.2 45 +26 +26 жарко 1017.9 1016.6 +20.3
09 10.12 С 7 20 км н/о +25.8 +10.5 38 +27 +27 жарко 1015.9 1014.6
12 10.12 С 7 20 км н/о +26.3 +6.8 29 +26 +26 жарко 1014.8 1013.5
15 10.12 С 5 20 км н/о +24.1 +13.0 50 +26 +26 жарко 1016.2 1014.9
18 10.12 СЗ 7 20 км н/о +23.7 +11.4 46 +25 +25 комфорт 1017.4 1016.1 +26.7
21 10.12 СЗ 8 20 км н/о +23.2 +10.8 46 +25 +25 комфорт 1016.8 1015.5
00 11.12 СЗ 10 20 км н/о +22.6 +12.0 51 +25 +25 комфорт 1016.5 1015.2
03 11.12 СЗ 11 20 км н/о +22.7 +12.8 54 +26 +26 жарко 1017.9 1016.6
06 11.12 СЗ 13 20 км н/о +24.3 +12.5 48 +26 +26 жарко 1020.1 1018.8 +22.5
09 11.12 СЗ 14 19 км н/о +25.9 +11.0 39 +27 +27 жарко 1018.6 1017.3
12 11.12 С 15 19 км н/о +25.4 +11.9 43 +27 +27 жарко 1017.4 1016.1
15 11.12 СЗ 10 9000 м н/о +23.5 +10.7 44 +25 +25 комфорт 1018.8 1017.5

 

Местоположение метеостанции Doha (Катар): широта 25.25 долгота 51.57 высота над уровнем моря 10 м.

В архиве по умолчанию представлена погода в Doha за последнюю неделю. Архивные данные за месяц целиком и за предыдущие месяцы, начиная с января 2011 года, Вы можете получить, выбрав интересующий диапазон дат из раскрывающегося списка и нажав кнопку "Ввод!".


*Определитесь, кто Вы:
робот инопланетянин человек

Внимание! Время в таблицах - всемирное. Для получения местного времени необходимо прибавить поправку, которая в Doha равна 4 ч.

Смотрите также архив погоды в соседних городах и на ближайших метеорологических станциях:

Погода в Hamad Int Airport (Катар) (5 км)
Погода в Dukhan (Катар) (84 км)
Погода в Abu Samra (Катар) (94 км)
Погода в Bahrain (Бахрейн) (146 км)
Погода в Dhahran (Саудовская Аравия) (180 км)
Погода в Al Ahsa (Саудовская Аравия) (210 км)
Погода в King Fahd Int Airport (Саудовская Аравия) (220 км)
Погода в Kish Island (Иран) (278 км)
Погода в Bandar Deyr (Иран) (289 км)
Погода в Abu Dhabi Bateen Airport (ОАЭ) (306 км)

Пояснения к столбцам:

Ветер - указаны скорость ветра в м/с - средняя за 10 мин, порывы в срок и между сроками (в фигурных скобках) и направление, откуда дует ветер: С - северный, СВ - северо-восточный, В - восточный, ЮВ - юго-восточный, Ю - южный, ЮЗ - юго-западный, З - западный, СЗ - северо-западный.
Видимость - горизонтальная дальность видимости в метрах или километрах. При видимости от 1 до 10 км при отсутствии осадков обычно наблюдается дымка, при ухудшении видимости до 1 км и менее - туман. В сухую погоду видимость может ухудшаться дымом, пылью или мглою.
Явления - указаны атмосферные явления, наблюдавшиеся в срок или в последний час перед сроком; фигурными скобками обозначены явления, наблюдавшиеся между сроками (за 1-3 часа до срока); квадратными скобками обозначены град или гололедные отложения с указанием их диаметра в мм.
Облачность - указаны через наклонную черту общая и нижняя облачность в баллах и высота нижней границы облаков в метрах; квадратными скобками обозначены формы облаков: Ci - перистые, Cs - перисто-слоистые, Cc - перисто-кучевые, Ac - высококучевые, As - высокослоистые, Sc - слоисто-кучевые, Ns - слоисто-дождевые, Cu - кучевые, Cb - кучево-дождевые. Подробнее классификацию облаков см. в Атласе облаков (PDF).
T - Температура воздуха - температура, измеренная на высоте 2 м над землей.
Td - Температура точки росы - температура, при понижении до которой содержащийся в воздухе водяной пар достигнет насыщения.
f - Относительная влажность воздуха - влажноcть воздуха, измеренная на высоте 2 м над землей.
Te - Эффективная температура - температура, которую ощущает одетый по сезону человек в тени. Характеристика душности погоды. При расчете учитывается влияние влажности воздуха и скорости ветра на теплоощущения человека.
Tes - Эффективная температура на солнце - температура, которую ощущает человек, с поправкой на солнечный нагрев. Характеристика знойности погоды. Зависит от высоты солнца над горизонтом, облачности и скорости ветра. Ночью, в пасмурную погоду, а также при ветре 12 м/с и более поправка равна нулю.
P - Атмосферное давление - приведенное к уровню моря атмосферное давление.
Po - Атмосферное давление - измеренное на уровне метеостанции атмосферное давление.
Tmin - Минимальная температура - минимум температуры воздуха на высоте 2 м над землей.
Tmax - Максимальная температура - максимум температуры воздуха на высоте 2 м над землей.
R - Количество осадков - Количество выпавших осадков за период времени, мм. При наведении курсора мыши на число - период времени, за который выпало указанное количество осадков.
R24 - Количество осадков - Количество выпавших осадков за 24 часа, мм.
S - Снежный покров - Высота снежного покрова, см. При наведении курсора мыши на число - состояние снежного покрова и степень покрытия местности в баллах.